Flag for Colombia Weather past 2 weeks in Buenaventura, Colombia

Now
66 °F

Scattered clouds.


Feels Like: 66 °F
Forecast: 77 / 89 °F
Wind: No wind

Location: Cali / Alfonso Bonillaaragon

Current Time: Apr 26, 2015 at 6:49:11 AM

Latest Report: Apr 26, 2015 at 6:00 AM


Visibility: N/A

Pressure: 29.95 "Hg

Humidity: 94%

Dew point: 64 °F

Location of BuenaventuraLocation

Historic Weather in Buenaventura — Graph

°F

Buenaventura temperature yesterday

Maximum temperature yesterday: 84 °F (at 2:00 PM)
Minimum temperature yesterday: 70 °F (at 4:00 AM)
Average temperature yesterday: 76 °F

Past Weeks' High & Low Weather Summary

 TemperatureHumidityPressure
High90 °F (Apr 12, 3:00 PM)100% (Apr 12, 4:00 AM)30.12 "Hg (Apr 12, 4:00 AM)
Low64 °F (Apr 12, 6:00 AM)43% (Apr 18, 2:00 PM)29.82 "Hg (Apr 23, 4:00 PM)
Average75 °F77%29.97 "Hg
* Reported Apr 11 5:00 AM — Apr 26 5:00 AM, Buenaventura, Weather by CustomWeather, © 2015

Note: Actual official high and low records may vary slightly from our data, if they occured in-between our weather recording intervals... More about our weather records

Advertising

Buenaventura weather history for previous 24 hours

 ConditionsComfort  
Time TempWeatherWind HumidityBarometerVisibility
5:00 AM
Sun, Apr 26
66 °FPassing clouds.No wind94%29.94 "HgN/A
4:00 AM68 °FPassing clouds.3 mph94%29.93 "HgN/A
3:00 AM68 °FPassing clouds.No wind94%29.93 "HgN/A
2:00 AM70 °FPassing clouds.3 mph88%29.95 "HgN/A
1:00 AM70 °FPassing clouds.3 mph88%29.97 "HgN/A
12:00 AM70 °FPassing clouds.5 mph88%29.99 "HgN/A
11:00 PM
Sat, Apr 25
70 °FPassing clouds.6 mph88%30.00 "HgN/A
10:00 PM72 °FPassing clouds.5 mph83%29.99 "HgN/A
9:00 PM73 °FPassing clouds.9 mph78%29.98 "HgN/A
8:00 PM75 °FPassing clouds.12 mph74%29.95 "HgN/A
7:00 PM75 °FPassing clouds.7 mph74%29.93 "HgN/A
6:00 PM79 °FScattered showers. Broken clouds.12 mph65%29.90 "HgN/A
5:00 PM82 °FBroken clouds.12 mph62%29.87 "HgN/A
4:00 PM81 °FScattered showers. Broken clouds.14 mph66%29.88 "HgN/A
3:00 PM81 °FDrizzle. Broken clouds.12 mph70%29.89 "Hg6 mi
2:00 PM84 °FBroken clouds.6 mph58%29.91 "HgN/A
1:00 PM82 °FPartly sunny.5 mph62%29.96 "HgN/A
12:00 PM82 °FPartly sunny.3 mph62%29.99 "HgN/A
11:00 AM81 °FPartly sunny.5 mph66%30.02 "HgN/A
10:00 AM79 °FBroken clouds.3 mph70%30.03 "HgN/A
9:00 AM77 °FBroken clouds.5 mph74%30.03 "HgN/A
8:00 AM75 °FBroken clouds.3 mph78%30.03 "HgN/A
7:00 AM72 °FBroken clouds.No wind88%29.99 "HgN/A
6:00 AM72 °FBroken clouds.2 mph88%29.98 "HgN/A
Weather by CustomWeather, © 2015

See weather overviewHow to use our weather pages